Location: Bathurst
(33.4193°S, 149.5775°E)
Time: 20:25:58
(UTC+11:00)

ISS - Pass Details

Date: 28 January 2021
Orbit: 417 x 422 km, 51.6° (Epoch: 28 February)

Event Time Altitude Azimuth Distance (km) Brightness Sun altitude
Exits shadow 04:41:35 23° 233° (SW) 945 -2.1 -18.5°
Maximum altitude 04:42:09 25° 216° (SW) 915 -2.1 -18.4°
Drops below altitude 10° 04:45:02 10° 158° (SSE) 1,523 0.0 -18.0°
Sets 04:47:24 0° 144° (SE) 2,392 1.5 -17.6°
